Location: Recife
(8.0585°S, 34.8848°W)
Time: 12:34:25
(UTC-03:00)

Vanguard 2 Rocket - Visible Passes

Search period start: 14 April 2026 00:00
Search period end: 24 April 2026 00:00
Orbit: 554 x 3286 km, 32.9° (Epoch: 14 April)

Date Brightness Start Highest point End Pass type
(mag) Time Alt. Az. Time Alt. Az. Time Alt. Az.
14 Apr 7.8 03:54:37 18° NNW 03:58:50 54° NE 04:07:59 10° ESE visible
14 Apr 10.2 17:37:00 10° W 17:48:15 23° NW 17:56:22 10° N visible
15 Apr 8.5 02:53:51 24° NE 02:54:13 24° NE 02:59:52 10° E visible
15 Apr 7.8 05:00:39 10° WNW 05:06:52 59° SSW 05:18:02 10° SE visible
16 Apr 7.1 03:58:28 30° NW 04:01:26 86° NNE 04:10:35 10° ESE visible
16 Apr 10.5 17:42:26 10° WNW 17:50:41 16° NW 17:57:15 10° N visible
17 Apr 7.9 02:57:40 38° ENE 02:57:40 38° ENE 03:03:16 10° ESE visible
18 Apr 7.1 04:02:14 37° W 04:04:20 59° SSW 04:12:54 10° SE visible
18 Apr 10.7 17:50:47 10° NW 17:53:28 11° NW 17:55:58 10° NNW visible
19 Apr 7.8 03:01:22 41° ESE 03:01:22 41° ESE 03:06:09 10° ESE visible
20 Apr 7.5 04:05:51 31° SW 04:07:29 36° SSW 04:14:58 10° SE visible
21 Apr 8.2 03:04:56 30° SE 03:04:56 30° SE 03:08:39 10° SE visible
22 Apr 8.1 04:09:20 21° SW 04:10:50 23° SSW 04:16:50 10° SSE visible
23 Apr 8.6 03:08:21 20° SSE 03:08:21 20° SSE 03:10:50 10° SE visible
